Regional Weather Roundup
Issued by NWS

Home | Current Version | Previous Version | Graphics & Text | Print | Product List | Glossary On
Versions: 1 2 3 4 5 6 7 8 9 10 11 12 13 14 15 16 17 18 19 20 21 22 23 24 25 26 27 28 29 30 31 32 33 34 35 36 37 38 39 40 41 42 43 44 45 46 47 48 49 50
000
ASUS43 KLMK 112202
RWRKY
KENTUCKY REGIONAL WEATHER ROUNDUP
NATIONAL WEATHER SERVICE LOUISVILLE KY
600 PM EDT FRI JUL 11 2014

NOTE "FAIR" INDICATES FEW OR NO CLOUDS BELOW 12,000 FEET
WITH NO SIGNIFICANT WEATHER AND/OR OBSTRUCTIONS TO VISIBILITY.

KYZ001>023-026-027-061>063-070>075-112300-
WESTERN AND SOUTH CENTRAL KENTUCKY

CITY           SKY/WX    TMP DP  RH WIND       PRES   REMARKS
PADUCAH        SUNNY     90  65  43 S5        30.11F HX  92
HENDERSON      SUNNY     90  64  43 CALM      30.12S HX  91
OWENSBORO      MOSUNNY   88  62  41 S7        30.13F
HOPKINSVILLE   MOSUNNY   91  61  37 NW5       30.12F HX  91
BOWLING GREEN  MOSUNNY   90  59  35 N5        30.13F
GLASGOW        NOT AVBL
$$

KYZ024-025-028>034-038-045-046-053-112300-
NORTH CENTRAL KENTUCKY

CITY           SKY/WX    TMP DP  RH WIND       PRES   REMARKS
LOUISVILLE/SDF PTSUNNY   88  57  34 VRB7      30.12F
LOUISVILLE/LOU SUNNY     87  56  34 VRB3      30.13F
FORT KNOX      MOSUNNY   86  61  43 W5        30.13F
$$

KYZ035>037-039>044-047>052-055>060-089>105-112300-
NORTHEAST KENTUCKY

CITY           SKY/WX    TMP DP  RH WIND       PRES   REMARKS
LEXINGTON      SUNNY     88  59  37 W5        30.15F
COVINGTON      MOSUNNY   84  57  39 S7        30.15F
FRANKFORT      SUNNY     86  60  41 NW3       30.14F
$$

KYZ054-064>069-076>088-106>120-112300-
SOUTHEAST KENTUCKY

CITY           SKY/WX    TMP DP  RH WIND       PRES   REMARKS
JACKSON        SUNNY     86  53  32 CALM      30.18F
LONDON         SUNNY     87  54  32 CALM      30.17F
SOMERSET       SUNNY     88  52  29 NW6       30.16S
MIDDLESBORO    SUNNY     87  58  37 CALM      30.15F
MONTICELLO     CLEAR     90  57  32 CALM      30.16F
$$




USA.gov is the U.S. government's official web portal to all federal, state and local government web resources and services.